• In Lithuania
  • List of Countries
  • For 7 days
  • Water Temperature
  • Satellite Maps
  • Weather Map
  • Weather Widgets
  • user-avatar
    Login

    Hourly Weather Novonikolskiy

    Today, 15 August, Wednesday

    Time Temperature Precipitation Wind Pressure Humidity
    00:00 +23°C° 0 mm 2 mps 743 mmHg 52%
    01:00 +23°C° 0 mm 2 mps 743 mmHg 55%
    02:00 +21°C° 0 mm 2 mps 743 mmHg 58%
    03:00 +21°C° 0 mm 2 mps 743 mmHg 60%
    04:00 +22°C° 0 mm 1 mps 743 mmHg 61%
    05:00 +22°C° 0 mm 1 mps 743 mmHg 62%
    06:00 +22°C° 0 mm 1 mps 743 mmHg 62%
    07:00 +24°C° 0 mm 1 mps 744 mmHg 55%
    08:00 +27°C° 0 mm 1 mps 744 mmHg 48%
    09:00 +29°C° 0 mm 1 mps 744 mmHg 41%
    10:00 +30°C° 0 mm 2 mps 744 mmHg 37%
    11:00 +31°C° 0 mm 2 mps 744 mmHg 34%
    12:00 +34°C° 0 mm 3 mps 744 mmHg 30%
    13:00 +34°C° 0 mm 4 mps 743 mmHg 29%
    14:00 +34°C° 0 mm 4 mps 743 mmHg 28%
    15:00 +35°C° 0 mm 4 mps 743 mmHg 27%
    16:00 +34°C° 0 mm 4 mps 743 mmHg 30%
    17:00 +33°C° 0 mm 4 mps 743 mmHg 32%
    18:00 +32°C° 0 mm 4 mps 743 mmHg 34%
    19:00 +30°C° 0 mm 4 mps 743 mmHg 37%
    20:00 +28°C° 0 mm 4 mps 743 mmHg 40%
    21:00 +27°C° 0 mm 5 mps 744 mmHg 43%
    22:00 +26°C° 0 mm 4 mps 744 mmHg 48%
    23:00 +25°C° 0 mm 3 mps 743 mmHg 52%

    Tomorrow, 16 August, Thursday

    Time Temperature Precipitation Wind Pressure Humidity
    00:00 +24°C° 0 mm 3 mps 743 mmHg 57%
    01:00 +22°C° 0 mm 3 mps 743 mmHg 60%
    02:00 +23°C° 0 mm 2 mps 743 mmHg 62%
    03:00 +21°C° 0 mm 2 mps 743 mmHg 65%
    04:00 +21°C° 0 mm 2 mps 743 mmHg 67%
    05:00 +21°C° 0 mm 3 mps 743 mmHg 69%
    06:00 +21°C° 0 mm 3 mps 743 mmHg 71%
    07:00 +23°C° 0 mm 4 mps 743 mmHg 63%
    08:00 +26°C° 0 mm 5 mps 743 mmHg 56%
    09:00 +28°C° 0 mm 6 mps 743 mmHg 49%
    10:00 +29°C° 0 mm 6 mps 743 mmHg 45%
    11:00 +32°C° 0 mm 7 mps 742 mmHg 41%
    12:00 +33°C° 0 mm 7 mps 742 mmHg 36%
    13:00 +34°C° 0 mm 7 mps 742 mmHg 35%
    14:00 +34°C° 0 mm 7 mps 742 mmHg 33%
    15:00 +35°C° 0 mm 7 mps 741 mmHg 32%
    16:00 +34°C° 0 mm 6 mps 741 mmHg 34%
    17:00 +33°C° 0 mm 6 mps 741 mmHg 36%
    18:00 +32°C° 0 mm 5 mps 741 mmHg 38%
    19:00 +30°C° 0 mm 5 mps 741 mmHg 42%
    20:00 +29°C° 0 mm 6 mps 742 mmHg 47%
    21:00 +27°C° 0 mm 6 mps 742 mmHg 51%
    22:00 +27°C° 0 mm 5 mps 742 mmHg 55%
    23:00 +26°C° 0 mm 4 mps 741 mmHg 60%

    Day after tomorrow, 17 August, Friday

    Time Temperature Precipitation Wind Pressure Humidity
    00:00 +25°C° 0 mm 4 mps 741 mmHg 65%
    01:00 +24°C° 0 mm 3 mps 741 mmHg 68%
    02:00 +24°C° 0 mm 3 mps 741 mmHg 72%
    03:00 +22°C° 0 mm 3 mps 741 mmHg 75%
    04:00 +23°C° 0 mm 2 mps 741 mmHg 75%
    05:00 +23°C° 0 mm 2 mps 741 mmHg 75%
    06:00 +23°C° 0 mm 2 mps 741 mmHg 75%
    07:00 +25°C° 0 mm 2 mps 741 mmHg 68%
    08:00 +27°C° 0 mm 2 mps 741 mmHg 60%
    09:00 +28°C° 0 mm 3 mps 741 mmHg 53%
    10:00 +30°C° 0 mm 3 mps 741 mmHg 48%
    11:00 +33°C° 0 mm 3 mps 740 mmHg 43%
    12:00 +34°C° 0 mm 3 mps 740 mmHg 38%
    13:00 +35°C° 0 mm 3 mps 740 mmHg 36%
    14:00 +36°C° 0 mm 3 mps 740 mmHg 34%
    15:00 +37°C° 0 mm 3 mps 739 mmHg 32%
    16:00 +36°C° 0 mm 3 mps 739 mmHg 33%
    17:00 +36°C° 0 mm 2 mps 739 mmHg 35%
    18:00 +35°C° 0 mm 2 mps 739 mmHg 36%
    19:00 +32°C° 0 mm 2 mps 739 mmHg 40%
    20:00 +31°C° 0 mm 3 mps 739 mmHg 44%
    21:00 +29°C° 0 mm 3 mps 740 mmHg 49%
    22:00 +28°C° 0.1 mm 3 mps 739 mmHg 54%
    23:00 +27°C° 0.1 mm 2 mps 739 mmHg 60%

    18 August, Saturday

    Time Temperature Precipitation Wind Pressure Humidity
    00:00 +26°C° 0.1 mm 2 mps 739 mmHg 65%
    01:00 +26°C° 0.1 mm 2 mps 739 mmHg 70%
    02:00 +25°C° 0.1 mm 2 mps 739 mmHg 74%
    03:00 +25°C° 0.1 mm 2 mps 739 mmHg 78%
    04:00 +25°C° 0.1 mm 2 mps 739 mmHg 78%
    05:00 +25°C° 0.1 mm 2 mps 740 mmHg 79%
    06:00 +24°C° 0.1 mm 2 mps 740 mmHg 80%
    07:00 +26°C° 0.2 mm 3 mps 740 mmHg 72%
    08:00 +27°C° 0.2 mm 3 mps 740 mmHg 64%
    09:00 +29°C° 0.2 mm 3 mps 740 mmHg 56%
    10:00 +30°C° 0.3 mm 4 mps 740 mmHg 50%
    11:00 +32°C° 0.3 mm 4 mps 740 mmHg 45%
    12:00 +33°C° 0.3 mm 5 mps 740 mmHg 39%
    13:00 +33°C° 0.6 mm 5 mps 740 mmHg 38%
    14:00 +33°C° 0.6 mm 5 mps 740 mmHg 37%
    15:00 +33°C° 0.6 mm 5 mps 740 mmHg 36%
    16:00 +33°C° 0 mm 3 mps 740 mmHg 38%
    17:00 +32°C° 0 mm 2 mps 740 mmHg 39%
    18:00 +31°C° 0 mm 1 mps 741 mmHg 40%
    19:00 +30°C° 0 mm 2 mps 741 mmHg 42%
    20:00 +29°C° 0 mm 2 mps 741 mmHg 45%
    21:00 +27°C° 0 mm 2 mps 741 mmHg 47%
    22:00 +26°C° 0 mm 2 mps 741 mmHg 50%
    23:00 +26°C° 0 mm 2 mps 741 mmHg 54%

    19 August, Sunday

    Time Temperature Precipitation Wind Pressure Humidity
    00:00 +25°C° 0 mm 2 mps 741 mmHg 57%
    01:00 +25°C° 0 mm 2 mps 741 mmHg 57%
    02:00 +25°C° 0 mm 2 mps 741 mmHg 57%
    03:00 +24°C° 0 mm 2 mps 741 mmHg 57%
    04:00 +24°C° 0 mm 2 mps 742 mmHg 57%
    05:00 +24°C° 0 mm 2 mps 742 mmHg 58%
    06:00 +22°C° 0 mm 3 mps 742 mmHg 59%
    07:00 +25°C° 0 mm 3 mps 742 mmHg 54%
    08:00 +27°C° 0 mm 4 mps 742 mmHg 49%
    09:00 +28°C° 0 mm 4 mps 743 mmHg 45%
    10:00 +29°C° 0 mm 5 mps 742 mmHg 41%
    11:00 +30°C° 0 mm 5 mps 742 mmHg 38%
    12:00 +33°C° 0 mm 5 mps 742 mmHg 35%
    13:00 +33°C° 0 mm 5 mps 742 mmHg 34%
    14:00 +33°C° 0 mm 5 mps 742 mmHg 33%
    15:00 +33°C° 0 mm 5 mps 742 mmHg 32%
    16:00 +32°C° 0 mm 5 mps 742 mmHg 34%
    17:00 +32°C° 0 mm 5 mps 742 mmHg 36%
    18:00 +30°C° 0 mm 4 mps 742 mmHg 38%
    19:00 +28°C° 0 mm 4 mps 742 mmHg 39%
    20:00 +27°C° 0 mm 4 mps 743 mmHg 41%
    21:00 +26°C° 0 mm 4 mps 743 mmHg 42%
    22:00 +25°C° 0 mm 4 mps 743 mmHg 45%
    23:00 +24°C° 0 mm 3 mps 743 mmHg 48%

    20 August, Monday

    Time Temperature Precipitation Wind Pressure Humidity
    00:00 +22°C° 0 mm 3 mps 743 mmHg 51%
    01:00 +21°C° 0 mm 3 mps 742 mmHg 53%
    02:00 +21°C° 0 mm 3 mps 742 mmHg 55%
    03:00 +20°C° 0 mm 3 mps 742 mmHg 57%
    04:00 +20°C° 0 mm 3 mps 743 mmHg 58%
    05:00 +19°C° 0 mm 3 mps 743 mmHg 59%
    06:00 +19°C° 0 mm 3 mps 743 mmHg 60%
    07:00 +21°C° 0 mm 3 mps 743 mmHg 53%
    08:00 +23°C° 0 mm 4 mps 743 mmHg 46%
    09:00 +25°C° 0 mm 5 mps 743 mmHg 39%
    10:00 +26°C° 0 mm 5 mps 743 mmHg 35%
    11:00 +27°C° 0 mm 5 mps 743 mmHg 31%
    12:00 +28°C° 0 mm 5 mps 743 mmHg 28%
    13:00 +29°C° 0 mm 5 mps 743 mmHg 26%
    14:00 +29°C° 0 mm 5 mps 743 mmHg 25%
    15:00 +30°C° 0 mm 5 mps 743 mmHg 24%
    16:00 +29°C° 0 mm 4 mps 743 mmHg 26%
    17:00 +28°C° 0 mm 4 mps 743 mmHg 28%
    18:00 +28°C° 0 mm 3 mps 743 mmHg 30%
    19:00 +26°C° 0 mm 4 mps 743 mmHg 31%
    20:00 +25°C° 0 mm 4 mps 744 mmHg 32%
    21:00 +22°C° 0 mm 5 mps 744 mmHg 34%
    22:00 +21°C° 0 mm 4 mps 744 mmHg 39%
    23:00 +21°C° 0 mm 4 mps 744 mmHg 45%
    Show more